Time,TemperatureF,DewpointF,PressureIn,WindDirection,WindDirectionDegrees,WindSpeedMPH,WindSpeedGustMPH,Humidity,HourlyPrecipIn,Conditions,Clouds,dailyrainin,SoftwareType,DateUTC
2013-06-07 00:00:00,78.0,-99.9,-100.00,WSW,239,18.0,28.0,-999,-99.99,,,-99.99,,2013-06-07 07:00:00,
2013-06-07 00:02:00,78.0,-99.9,-100.00,SW,222,16.0,28.0,-999,-99.99,,,-99.99,,2013-06-07 07:02:00,
2013-06-07 00:22:00,78.0,-99.9,-100.00,SW,231,24.0,25.0,-999,-99.99,,,-99.99,,2013-06-07 07:22:00,
2013-06-07 00:32:00,78.0,-99.9,-100.00,SW,231,24.0,25.0,-999,-99.99,,,-99.99,,2013-06-07 07:32:00,
2013-06-07 00:52:00,78.0,-99.9,-100.00,WSW,239,18.0,28.0,-999,-99.99,,,-99.99,,2013-06-07 07:52:00,
2013-06-07 03:53:00,79.0,-99.9,-100.00,WNW,283,9.0,14.0,-999,-99.99,,,-99.99,,2013-06-07 10:53:00,
2013-06-07 04:02:00,79.0,-99.9,-100.00,WNW,283,9.0,14.0,-999,-99.99,,,-99.99,,2013-06-07 11:02:00,
2013-06-07 04:32:00,80.0,-99.9,-100.00,WNW,287,10.0,13.0,-999,-99.99,,,-99.99,,2013-06-07 11:32:00,
2013-06-07 05:02:00,79.0,-99.9,-100.00,WSW,253,9.0,16.0,-999,-99.99,,,-99.99,,2013-06-07 12:02:00,
2013-06-07 06:02:00,74.0,-99.9,-100.00,WSW,239,1.0,7.0,-999,-99.99,,,-99.99,,2013-06-07 13:02:00,
2013-06-07 06:13:00,74.0,-99.9,-100.00,WSW,239,1.0,7.0,-999,-99.99,,,-99.99,,2013-06-07 13:13:00,
2013-06-07 06:22:00,74.0,-99.9,-100.00,WSW,239,1.0,7.0,-999,-99.99,,,-99.99,,2013-06-07 13:22:00,
2013-06-07 06:33:00,74.0,-99.9,-100.00,ENE,62,4.0,4.0,-999,-99.99,,,-99.99,,2013-06-07 13:33:00,
2013-06-07 09:10:00,88.0,-99.9,-100.00,West,260,4.0,5.0,-999,-99.99,,,-99.99,,2013-06-07 16:10:00,
2013-06-07 09:33:00,87.0,-99.9,-100.00,NW,326,2.0,5.0,-999,-99.99,,,-99.99,,2013-06-07 16:33:00,
2013-06-07 09:53:00,88.0,-99.9,-100.00,West,260,4.0,5.0,-999,-99.99,,,-99.99,,2013-06-07 16:53:00,
2013-06-07 10:03:00,88.0,-99.9,-100.00,West,260,4.0,5.0,-999,-99.99,,,-99.99,,2013-06-07 17:03:00,
2013-06-07 12:10:00,96.0,-99.9,-100.00,NNE,22,7.0,13.0,-999,-99.99,,,-99.99,,2013-06-07 19:10:00,
2013-06-07 13:00:00,96.0,-99.9,-100.00,NNE,22,7.0,13.0,-999,-99.99,,,-99.99,,2013-06-07 20:00:00,
2013-06-07 13:09:00,96.0,-99.9,-100.00,NNE,22,7.0,13.0,-999,-99.99,,,-99.99,,2013-06-07 20:09:00,
2013-06-07 13:30:00,102.0,-99.9,-100.00,North,358,2.0,8.0,-999,-99.99,,,-99.99,,2013-06-07 20:30:00,
2013-06-07 16:05:00,102.0,-99.9,-100.00,NNW,344,2.0,10.0,-999,-99.99,,,-99.99,,2013-06-07 23:05:00,
2013-06-07 17:00:00,105.0,-99.9,-100.00,ENE,70,3.0,11.0,-999,-99.99,,,-99.99,,2013-06-08 00:00:00,
2013-06-07 17:45:00,96.0,-99.9,-100.00,SW,225,16.0,28.0,-999,-99.99,,,-99.99,,2013-06-08 00:45:00,
2013-06-07 18:00:00,97.0,-99.9,-100.00,SW,224,16.0,22.0,-999,-99.99,,,-99.99,,2013-06-08 01:00:00,
2013-06-07 18:30:00,96.0,-99.9,-100.00,SW,225,16.0,28.0,-999,-99.99,,,-99.99,,2013-06-08 01:30:00,
2013-06-07 18:40:00,96.0,-99.9,-100.00,SW,225,16.0,28.0,-999,-99.99,,,-99.99,,2013-06-08 01:40:00,
2013-06-07 18:55:00,96.0,-99.9,-100.00,WSW,256,7.0,17.0,-999,-99.99,,,-99.99,,2013-06-08 01:55:00,
2013-06-07 19:37:00,96.0,-99.9,-100.00,WSW,256,7.0,17.0,-999,-99.99,,,-99.99,,2013-06-08 02:37:00,
2013-06-07 19:49:00,96.0,-99.9,-100.00,WSW,256,7.0,17.0,-999,-99.99,,,-99.99,,2013-06-08 02:49:00,
2013-06-07 21:01:00,88.0,-99.9,-100.00,WSW,250,19.0,20.0,-999,-99.99,,,-99.99,,2013-06-08 04:01:00,
2013-06-07 21:03:00,88.0,-99.9,-100.00,WSW,255,18.0,20.0,-999,-99.99,,,-99.99,,2013-06-08 04:03:00,
2013-06-07 21:13:00,88.0,-99.9,-100.00,WSW,255,18.0,20.0,-999,-99.99,,,-99.99,,2013-06-08 04:13:00,
2013-06-07 21:23:00,88.0,-99.9,-100.00,WSW,255,18.0,20.0,-999,-99.99,,,-99.99,,2013-06-08 04:23:00,
2013-06-07 21:30:00,87.0,-99.9,-100.00,West,273,18.0,21.0,-999,-99.99,,,-99.99,,2013-06-08 04:30:00,
2013-06-07 21:33:00,87.0,-99.9,-100.00,WSW,247,12.0,18.0,-999,-99.99,,,-99.99,,2013-06-08 04:33:00,
2013-06-07 21:42:00,87.0,-99.9,-100.00,WSW,247,12.0,18.0,-999,-99.99,,,-99.99,,2013-06-08 04:42:00,
2013-06-07 22:22:00,87.0,-99.9,-100.00,West,273,18.0,21.0,-999,-99.99,,,-99.99,,2013-06-08 05:22:00,